NSS-12

Last updated on Tue Sep 16 2025 00:02:46 GMT+0000 (Coordinated Universal Time)

1 36032U 09058A 25258.59848715 .00000055 00000+0 00000+0 0 9993 2 36032 0.0383 40.0194 0002859 132.3318 94.9101 1.00272120 58162
UTC large
Height (km)
Speed (km/s)
/
Latitude / Longitude
Inclination (degrees)
Orbital Period (minutes)
Azimuth
Elevation
Range (km)
Doppler Factor

Next 0 passes for location: London (51.5072 / 0.1276)

Sorry there are no passes over London.